Japan Airlines Virtual Airport Information Service

Shanghai Pudong International Airport

ICAO: ZSPD Country: China
Latitude: 31.1434 Longitude: 121.805
Latest Arrival : CPA368 (VHHH-ZSPD) Latest Departure : CPA367 (ZSPD-VHHH)


WX CaptureLIVE
Data provided by noaa.gov | Fetched at 14:26:27

METAR : ZSPD 231400Z 02005MPS 350V050 9999 BKN006 OVC033 17/15 Q1015 NOSIG

TAF : ZSPD 230911Z 2312/2412 06004MPS 2000 BR BKN005 OVC040 TX22/2406Z TN17/2321Z BECMG 2314/2315 09004MPS BKN003 OVC040 BECMG 2400/2402 3500 BKN015 OVC040


Runway Data for ZSPD
Data provided by openaviationdata.com

Runway ID Mag Var Hdg Length Elevation Surface ILS Freq ILS Id ILS Slope
16 -5 167° 12467 ft 10 ft Concrete -- -- --
17 -5 167° 13150 ft 10 ft Concrete 110.7 IPD 3
34 -5 347° 12467 ft 10 ft Concrete -- -- --
35 -5 347° 13150 ft 10 ft Concrete 111.9 INN 3

Shanghai Pudong International Airport, China
Use only for reference purposes



Not for navigational purposes.